Location: Cabri�res
(43.7840°N, 5.4986°E)
Time: 09:55:06
(UTC+00:00)

STARLINK-1215 - Pass Details

Date: 09 April 2020
Orbit: 378 x 381 km, 53.0° (Epoch: 04 June)

Event Time Altitude Azimuth Distance (km) Brightness Sun altitude
Rises 19:41:20 0° 306° (NW) 2,260 8.6 -15.5°
Reaches altitude 10° 19:43:24 10° 309° (NW) 1,403 7.0 -15.8°
Maximum altitude 19:46:31 64° 33° (NNE) 426 3.0 -16.3°
Enters shadow 19:47:13 46° 91° (E) 520 3.1 -16.4°
